Badr 6

operational
NORAD ID: 33154 Int'l Des: 2008-034 Owner: ARAB Country: I-ARAB
HEOCIRCULAR

Über Badr 6

Beschreibung wird geladen...

Live-Position

3D-Globus wird geladen...

Nächste Überflüge

Höhenverlauf

Altitude vs Time

uPlot chart will show altitude changes over time

Zweizeiliger Elementsatz

1 33154U 08034B 26062.00761006 -.00000210 00000-0 00000+0 0 9990
2 33154 2.5930 80.7176 0008672 311.7765 88.4744 0.98746061 64623
Epoch: 3. März 2026 • Age: 9 hours

Aktueller Status

Höhe 36245.4 km
Geschwindigkeit 3.06 km/s
Subsatellitenpunkt 0.19°N, 44.7°W
Startdatum 7. Juli 2008
Alter 17.6 years
Typ other

Technische Details

Klassifizierung Payload
Masse 3346.00 kg
Trockenmasse 1510.00 kg
Gesamtmasse 3346.00 kg
Länge 2.90 m
Durchmesser 1.80 m
Spannweite 32.00 m
Form Box + 2 Pan + Dish
Hersteller ASTT
Bus-Typ Eurostar 2000+
Phasenstatus In Orbit
Besitzer/Staat ARAB/I-ARAB

Große Konstellationen

Loading constellations...